Weather History for Rome Ciampino, Italy

Change the Weather History Date:

Monday, December 17, 2012

  Actual Average Record
Temperature  
Mean Temperature 50 °F -  
Max Temperature 57 °F 54 °F 59 °F (1997)
Min Temperature 44 °F 38 °F 21 °F (2010)
Degree Days  
Heating Degree Days 14    
Moisture  
Dew Point 48 °F    
Average Humidity 88    
Maximum Humidity 94    
Minimum Humidity 77    
Precipitation  
Precipitation 0.00 in 0.14 in - ()
Sea Level Pressure  
Sea Level Pressure 29.82 in    
Wind  
Wind Speed 4 mph ()    
Max Wind Speed 12 mph    
Max Gust Speed 30 mph    
Visibility 6.1 miles    
Events Rain , Thunderstorm    
Averages and records for this station are not official NWS values.
T = Trace of Precipitation, MM = Missing Value Source: Averaged Metar Reports

Daily Weather History Graph

Daily Weather History Graph

Search for Another Location

Airport:

Trip Planner

Search our weather history database for the weather conditions in past years. The results will help you decide how hot, cold, wet, or windy it might be!

Date:

Astronomy

Dec. 17, 2012 Rise Set
Actual Time 7:31 AM CET 4:40 PM CET
Civil Twilight 6:59 AM CET 5:11 PM CET
Nautical Twilight 6:24 AM CET 5:47 PM CET
Astronomical Twilight 5:50 AM CET 6:21 PM CET
Moon 10:27 AM CET (12/17) 9:46 PM CET (12/17)
Length of Visible Light 10h 12m
Length of Day
9h 08m
Waxing Crescent, 22% of the Moon is Illuminated
Dec 17
Waxing Crescent
Dec 20
First Quarter
Dec 28
Full
Jan 5
Last Quarter
Jan 11
New

Hourly Weather History & Observations

Time (CET) Temp. Windchill Dew Point Humidity Pressure Visibility Wind Dir Wind Speed Gust Speed Precip Events Conditions
12:15 AM 50.0 °F - 48.2 °F 94% 29.92 in 6.2 mi ESE 2.3 mph - N/A   Scattered Clouds
12:45 AM 51.8 °F - 48.2 °F 88% 29.92 in 6.2 mi South 2.3 mph - N/A   Scattered Clouds
1:15 AM 48.2 °F - 44.6 °F 87% 29.92 in 6.2 mi SE 4.6 mph - N/A   Partly Cloudy
1:45 AM 48.2 °F - 46.4 °F 93% 29.92 in 6.2 mi ESE 5.8 mph - N/A   Partly Cloudy
2:15 AM 48.2 °F - 46.4 °F 93% 29.92 in 6.2 mi SE 2.3 mph - N/A   Scattered Clouds
2:45 AM 48.2 °F - 46.4 °F 93% 29.89 in 6.2 mi Calm Calm - N/A   Scattered Clouds
3:15 AM 48.2 °F - 46.4 °F 93% 29.89 in 6.2 mi Calm Calm - N/A   Scattered Clouds
3:45 AM 48.2 °F - 46.4 °F 93% 29.89 in 6.2 mi NNW 1.2 mph - N/A   Mostly Cloudy
4:15 AM 48.2 °F - 46.4 °F 93% 29.89 in 6.2 mi Calm Calm - N/A   Mostly Cloudy
4:45 AM 48.2 °F - 46.4 °F 93% 29.89 in 6.2 mi West 1.2 mph - N/A   Mostly Cloudy
5:15 AM 48.2 °F - 46.4 °F 93% 29.89 in 6.2 mi SE 4.6 mph - N/A   Mostly Cloudy
5:45 AM 48.2 °F - 46.4 °F 93% 29.89 in 6.2 mi SE 3.5 mph - N/A   Mostly Cloudy
6:15 AM 50.0 °F - 48.2 °F 94% 29.86 in 6.2 mi SSE 4.6 mph - N/A   Scattered Clouds
6:45 AM 51.8 °F - 50.0 °F 94% 29.86 in 6.2 mi SSE 8.1 mph - N/A   Scattered Clouds
7:15 AM 53.6 °F - 50.0 °F 88% 29.86 in 6.2 mi South 9.2 mph - N/A   Scattered Clouds
7:45 AM 53.6 °F - 50.0 °F 88% 29.86 in 6.2 mi South 6.9 mph - N/A   Scattered Clouds
8:15 AM 53.6 °F - 50.0 °F 88% 29.86 in 6.2 mi SSE 9.2 mph - N/A   Scattered Clouds
8:45 AM 53.6 °F - 50.0 °F 88% 29.86 in 6.2 mi SE 6.9 mph - N/A   Scattered Clouds
9:15 AM 53.6 °F - 50.0 °F 88% 29.86 in 6.2 mi South 8.1 mph - N/A   Scattered Clouds
9:45 AM 55.4 °F - 51.8 °F 88% 29.86 in 6.2 mi South 10.4 mph - N/A   Scattered Clouds
10:15 AM 57.2 °F - 51.8 °F 82% 29.86 in 6.2 mi South 10.4 mph - N/A   Scattered Clouds
10:45 AM 57.2 °F - 51.8 °F 82% 29.86 in 6.2 mi South 8.1 mph - N/A   Mostly Cloudy
11:15 AM 55.4 °F - 51.8 °F 88% 29.83 in 6.2 mi South 6.9 mph - N/A   Mostly Cloudy
11:45 AM 55.4 °F - 50.0 °F 82% 29.83 in 6.2 mi South 6.9 mph - N/A   Mostly Cloudy
12:15 PM 57.2 °F - 51.8 °F 82% 29.80 in 6.2 mi SSW 6.9 mph - N/A   Mostly Cloudy
12:45 PM 57.2 °F - 51.8 °F 82% 29.80 in 6.2 mi SW 4.6 mph - N/A   Mostly Cloudy
1:15 PM 57.2 °F - 51.8 °F 82% 29.80 in 6.2 mi SW 4.6 mph - N/A Rain Light Rain
1:45 PM 57.2 °F - 51.8 °F 82% 29.77 in 4.3 mi WNW 2.3 mph - N/A Rain , Thunderstorm Light Thunderstorms and Rain
2:15 PM 57.2 °F - 53.6 °F 88% 29.77 in 6.2 mi SW 3.5 mph - N/A   Mostly Cloudy
2:45 PM 57.2 °F - 53.6 °F 88% 29.77 in 6.2 mi WSW 4.6 mph - N/A   Mostly Cloudy
3:15 PM 57.2 °F - 51.8 °F 82% 29.74 in 6.2 mi WSW 8.1 mph - N/A   Scattered Clouds
3:45 PM 57.2 °F - 51.8 °F 82% 29.74 in 6.2 mi NNE 5.8 mph - N/A   Partly Cloudy
4:15 PM 57.2 °F - 50.0 °F 77% 29.71 in 6.2 mi West 4.6 mph - N/A   Scattered Clouds
4:45 PM 57.2 °F - 51.8 °F 82% 29.71 in 5.0 mi WSW 3.5 mph - N/A   Scattered Clouds
5:15 PM 55.4 °F - 51.8 °F 88% 29.71 in 6.2 mi North 5.8 mph 29.9 mph N/A   Scattered Clouds
5:45 PM 50.0 °F - 46.4 °F 87% 29.74 in 6.2 mi NNE 11.5 mph - N/A Rain Light Rain
6:15 PM 48.2 °F - 42.8 °F 82% 29.74 in 6.2 mi ENE 8.1 mph - N/A Rain Light Rain
6:45 PM 48.2 °F - 42.8 °F 82% 29.74 in 6.2 mi NE 4.6 mph - N/A   Scattered Clouds
7:15 PM 48.2 °F - 42.8 °F 82% 29.74 in 6.2 mi NE 3.5 mph - N/A   Scattered Clouds
7:45 PM 46.4 °F - 42.8 °F 87% 29.77 in 6.2 mi North 2.3 mph - N/A   Partly Cloudy
8:15 PM 46.4 °F - 42.8 °F 87% 29.77 in - West 1.2 mph - N/A   Clear
8:45 PM 44.6 °F - 42.8 °F 93% 29.77 in 6.2 mi NW 2.3 mph - N/A   Partly Cloudy
9:15 PM 44.6 °F - 42.8 °F 93% 29.77 in 6.2 mi Calm Calm - N/A   Scattered Clouds
9:45 PM 44.6 °F 43.1 °F 42.8 °F 93% 29.77 in 6.2 mi NNE 3.5 mph - N/A   Partly Cloudy
10:15 PM 44.6 °F 43.1 °F 42.8 °F 93% 29.77 in 6.2 mi NE 3.5 mph - N/A   Partly Cloudy
10:45 PM 44.6 °F - 42.8 °F 93% 29.77 in 6.2 mi ENE 2.3 mph - N/A   Partly Cloudy